{"data":{"norad_id":40019,"epoch":"2026-05-24T22:18:08.616096Z","epoch_age_seconds":91836,"freshness":"FRESH","line1":"1 40019U 14033K   26144.92926639  .00000306  00000+0  56018-4 0  9990","line2":"2 40019  97.9619 272.4118 0078489 349.0660  10.8837 14.70859550638835","mean_motion":14.7085955,"eccentricity":0.0078489,"inclination_deg":97.9619,"raan_deg":272.4118,"arg_perigee_deg":349.066,"mean_anomaly_deg":10.8837,"bstar":5.6018e-5,"rev_number":63883,"period_min":97.90193767991,"perigee_km":603.09691435727,"apogee_km":713.55389388468,"semimajor_km":7036.462404121,"source":"CELESTRAK","updated_at":"2026-05-25T13:38:24.896968Z"}}